Location: Alma
(38.7220°N, 88.9090°W)
Time: 19:11:24
(UTC-06:00)

Courier 1B Rocket - All Passes

Search period start: 17 November 2019 00:00
Search period end: 27 November 2019 00:00
Orbit: 920 x 1202 km, 28.2° (Epoch: 16 November)

Date Brightness Start Highest point End Pass type
(mag) Time Alt. Az. Time Alt. Az. Time Alt. Az.
17 Nov - 13:56:48 10° S 14:00:53 16° SSE 14:05:05 10° ESE daylight
17 Nov - 15:47:15 10° SW 15:53:33 32° SSE 16:00:10 10° ESE daylight
17 Nov - 17:39:46 10° WSW 17:46:37 38° S 17:53:40 10° ESE visible
17 Nov - 19:33:19 10° WSW 19:39:41 28° SSW 19:46:05 10° SE visible
17 Nov - 21:29:25 10° SW 21:32:25 13° SSW 21:35:25 10° S visible
18 Nov - 12:58:43 10° SSE 13:00:07 11° SSE 13:01:31 10° SE daylight
18 Nov - 14:46:51 10° SW 14:52:37 27° SSE 14:58:39 10° ESE daylight
18 Nov - 16:38:52 10° WSW 16:45:32 37° S 16:52:31 10° ESE daylight
18 Nov - 18:32:02 10° WSW 18:38:38 32° SSW 18:45:24 10° SE visible
18 Nov - 20:26:42 10° WSW 20:31:30 18° SSW 20:36:20 10° SSE visible
19 Nov - 13:46:47 10° SSW 13:51:45 21° SSE 13:56:55 10° ESE daylight
19 Nov - 15:38:08 10° SW 15:44:31 35° S 15:51:16 10° ESE daylight
19 Nov - 17:30:56 10° WSW 17:37:35 35° S 17:44:29 10° SE visible
19 Nov - 19:24:51 10° WSW 19:30:33 23° SSW 19:36:20 10° SSE visible
20 Nov - 12:47:16 10° S 12:50:58 15° SSE 12:54:47 10° ESE daylight
20 Nov - 14:37:35 10° SW 14:43:33 31° SSE 14:49:53 10° ESE daylight
20 Nov - 16:29:58 10° WSW 16:36:32 37° S 16:43:26 10° ESE daylight
20 Nov - 18:23:24 10° WSW 18:29:33 27° SSW 18:35:53 10° SE visible
20 Nov - 20:19:28 10° SW 20:22:19 12° SSW 20:25:11 10° S visible
21 Nov - 13:37:15 10° SW 13:42:40 26° SSE 13:48:23 10° ESE daylight
21 Nov - 15:29:09 10° WSW 15:35:30 36° S 15:42:15 10° ESE daylight
21 Nov - 17:22:13 10° WSW 17:28:32 31° SSW 17:35:09 10° SE visible
21 Nov - 19:16:48 10° WSW 19:21:24 17° SSW 19:26:04 10° SSE visible
22 Nov - 12:37:14 10° SSW 12:41:52 20° SSE 12:46:41 10° ESE daylight
22 Nov - 14:28:30 10° SW 14:34:33 34° S 14:40:59 10° ESE daylight
22 Nov - 16:21:12 10° WSW 16:27:32 34° S 16:34:13 10° SE daylight
22 Nov - 18:15:02 10° WSW 18:20:27 22° SSW 18:26:03 10° SSE visible
23 Nov - 11:37:48 10° S 11:41:08 14° SSE 11:44:34 10° ESE daylight
23 Nov - 13:28:00 10° SW 13:33:39 30° SSE 13:39:38 10° ESE daylight
23 Nov - 15:20:19 10° WSW 15:26:32 35° S 15:33:09 10° ESE daylight
23 Nov - 17:13:40 10° WSW 17:19:29 26° SSW 17:25:34 10° SE visible
23 Nov - 19:09:51 10° SW 19:12:15 12° SSW 19:14:40 10° S visible
24 Nov - 12:27:43 10° SW 12:32:50 24° SSE 12:38:12 10° ESE daylight
24 Nov - 14:19:34 10° WSW 14:25:35 35° S 14:31:59 10° ESE daylight
24 Nov - 16:12:33 10° WSW 16:18:31 30° SSW 16:24:51 10° SE daylight
24 Nov - 18:07:07 10° WSW 18:11:20 16° SSW 18:15:40 10° S visible
25 Nov - 11:27:44 10° SSW 11:32:04 19° SSE 11:36:34 10° ESE daylight
25 Nov - 13:18:57 10° SW 13:24:41 32° S 13:30:46 10° ESE daylight
25 Nov - 15:11:36 10° WSW 15:17:34 33° S 15:23:55 10° SE daylight
25 Nov - 17:05:23 10° WSW 17:10:26 21° SSW 17:15:41 10° SSE visible
26 Nov - 10:28:17 10° S 10:31:22 14° SSE 10:34:31 10° SE daylight
26 Nov - 12:18:28 10° SW 12:23:51 28° SSE 12:29:29 10° ESE daylight
26 Nov - 14:10:46 10° WSW 14:16:39 34° S 14:22:54 10° ESE daylight
26 Nov - 16:04:04 10° WSW 16:09:30 25° SSW 16:15:14 10° SE daylight
26 Nov - 18:00:45 10° SW 18:02:13 11° SSW 18:03:43 10° SSW visible
